Location: Asheville, NC
(35.6000°N, 82.5500°W)
Time: 03:32:38
(UTC-04:00)

UKube-1 - Visible Passes

Search period start: 21 April 2018 00:00
Search period end: 01 May 2018 00:00
Orbit: 613 x 621 km, 98.4° (Epoch: 20 April)

Date Brightness Start Highest point End Pass type
(mag) Time Alt. Az. Time Alt. Az. Time Alt. Az.
21 Apr ? 03:30:17 13° N 03:30:17 13° N 03:30:46 10° N visible
22 Apr ? 03:46:48 12° NNW 03:46:48 12° NNW 03:47:10 10° NNW visible
23 Apr ? 04:03:17 11° NNW 04:03:17 11° NNW 04:03:26 10° NNW visible
24 Apr ? 02:42:41 13° NNE 02:42:41 13° NNE 02:43:20 10° NNE visible
25 Apr ? 02:59:12 16° NNE 02:59:12 16° NNE 03:00:12 10° N visible
26 Apr ? 03:15:42 18° N 03:15:42 18° N 03:16:53 10° N visible
27 Apr ? 03:32:13 19° N 03:32:13 19° N 03:33:25 10° N visible
28 Apr ? 03:48:43 18° NNW 03:48:43 18° NNW 03:49:50 10° NNW visible
29 Apr ? 02:28:07 12° NE 02:28:07 12° NE 02:28:52 10° NNE visible
29 Apr ? 04:05:14 15° NW 04:05:14 15° NW 04:06:04 10° NNW visible
30 Apr ? 02:44:38 17° NNE 02:44:38 17° NNE 02:46:01 10° NNE visible
30 Apr ? 04:21:44 12° NW 04:21:44 12° NW 04:22:07 10° NW visible
